User: anonymous   Login
Location: Follega
(52.8850°N, 5.7362°E)
Time: 15:44:01
(UTC+00:00)
Language:

Cosmos 1953 - Orbit

View from above orbital plane
View from above orbital plane
View from above satellite
View from above satellite

Ground track
Ground track

The orbit data is extracted from the following two-line orbital elements,

1 19210U 88050A   20224.86066446 +.00000245 +00000-0 +14822-4 0  9996
2 19210 082.5194 356.0420 0012076 290.7624 069.2309 15.06009157730003
Epoch (UTC): 11 August 2020 20:39:21
Eccentricity: 0.0012076
inclination: 82.5194°
perigee height: 540 km
apogee height: 557 km
right ascension of ascending node: 356.0420°
argument of perigee: 290.7624°
revolutions per day: 15.06009157
mean anomaly at epoch: 69.2309°
orbit number at epoch: 73000

The dashed part of the orbit path shows where the satellite is in the earth's shadow,  

DLR